Puyallup, WA
on Saturday, January 26, 2013

Saturday
Previous Day Next Day
Daily Summary
 ActualAverage (KSEA)Record (KSEA)
Temperature
Mean Temperature °F / °C 43°F / 6°C  
Max Temperature 48°F / 9°C 48°F / 9°C 58°F / 14°C (2003)
Min Temperature 32°F / 0°C 37°F / 3°C 9°F / -12°C (1957)
Degree Days
Heating Degree Days 25 22  
Month to date heating degree days 600  
Since 1 July heating degree days 2538  
Cooling Degree Days 0 0  
Month to date cooling degree days 0  
Year to date cooling degree days 0  
Moisture
Dew Point 37°F / 3°C   
Average Humidity 90    
Maximum Humidity 100    
Minimum Humidity 62    
Precipitation
Precipitation 0.01 in / 0.25 cm 0.16 in / 4.06 cm 1.03 in / 2.62 cm (1950)
Month to date precipitation 4.78  
Year to date precipitation 4.78  
Snow
Snow 0.00 in / 0.00 cm in / cm 10.00 in / 25.40 cm (1950)
Month to date snowfall  
Since 1 July snowfall  
Snow Depth in / cm   
Wind
Wind Speed 2 mph / 3 km/h   
Max Wind Speed 14 mph / 23 km/h   
Max Gust Speed 18 mph / 29 km/h   
Visibility 10 miles / 15 kilometers   
Events Rain   

Key: T is trace of precipitation, MM is missing value
Source: NWS Daily Summary
Time(PST)TemperatureDew PointHumidity Pressure Visibility Wind DirectionWind SpeedGust SpeedPrecipitationEvents Conditions
12:15 AM 32.0°F / 0.0°C 32.0°F / 0.0°C 100% 29.93 in / 1013.4 hPa 7.0 miles / 11.3 kilometers Calm Calm - N/A   Mostly Cloudy
12:35 AM 32.0°F / 0.0°C 32.0°F / 0.0°C 100% 29.92 in / 1013.1 hPa 6.0 miles / 9.7 kilometers Calm Calm - N/A   Scattered Clouds
12:55 AM 32.0°F / 0.0°C 32.0°F / 0.0°C 100% 29.92 in / 1013.1 hPa 7.0 miles / 11.3 kilometers Calm Calm - N/A   Clear
1:15 AM 32.0°F / 0.0°C 32.0°F / 0.0°C 100% 29.92 in / 1013.1 hPa 2.5 miles / 4.0 kilometers Calm Calm - N/A   Clear
1:35 AM 32.0°F / 0.0°C 32.0°F / 0.0°C 100% 29.91 in / 1012.8 hPa 5.0 miles / 8.0 kilometers Calm Calm - N/A   Clear
1:55 AM 32.0°F / 0.0°C 32.0°F / 0.0°C 100% 29.91 in / 1012.8 hPa 10.0 miles / 16.1 kilometers Calm Calm - N/A   Clear
2:15 AM 32.0°F / 0.0°C 32.0°F / 0.0°C 100% 29.91 in / 1012.8 hPa 10.0 miles / 16.1 kilometers Calm Calm - N/A   Clear
2:35 AM 32.0°F / 0.0°C 32.0°F / 0.0°C 100% 29.91 in / 1012.8 hPa 10.0 miles / 16.1 kilometers Calm Calm - N/A   Clear
2:55 AM 32.0°F / 0.0°C 32.0°F / 0.0°C 100% 29.90 in / 1012.4 hPa 10.0 miles / 16.1 kilometers Calm Calm - N/A   Clear
3:15 AM 33.8°F / 1.0°C 33.8°F / 1.0°C 100% 29.90 in / 1012.4 hPa 10.0 miles / 16.1 kilometers Calm Calm - N/A Rain Light Rain
3:35 AM 33.8°F / 1.0°C 33.8°F / 1.0°C 100% 29.89 in / 1012.1 hPa 5.0 miles / 8.0 kilometers Calm Calm - N/A Rain Light Rain
3:55 AM 35.6°F / 2.0°C 35.6°F / 2.0°C 100% 29.89 in / 1012.1 hPa 7.0 miles / 11.3 kilometers Calm Calm - N/A Rain Light Rain
4:15 AM 37.4°F / 3.0°C 37.4°F / 3.0°C 100% 29.88 in / 1011.7 hPa 10.0 miles / 16.1 kilometers Calm Calm - N/A Rain Light Rain
4:35 AM 39.2°F / 4.0°C 37.4°F / 3.0°C 93% 29.88 in / 1011.7 hPa 10.0 miles / 16.1 kilometers South 5.8 mph / 9.3 km/h - N/A Rain Light Rain
4:55 AM 39.2°F / 4.0°C 37.4°F / 3.0°C 93% 29.89 in / 1012.1 hPa 8.0 miles / 12.9 kilometers SSW 3.5 mph / 5.6 km/h - N/A Rain Light Rain
5:15 AM 39.2°F / 4.0°C 37.4°F / 3.0°C 93% 29.88 in / 1011.7 hPa 10.0 miles / 16.1 kilometers Calm Calm - N/A Rain Light Rain
5:35 AM 39.2°F / 4.0°C 37.4°F / 3.0°C 93% 29.88 in / 1011.7 hPa 10.0 miles / 16.1 kilometers Calm Calm - N/A   Mostly Cloudy
5:55 AM 39.2°F / 4.0°C 37.4°F / 3.0°C 93% 29.88 in / 1011.7 hPa 10.0 miles / 16.1 kilometers Calm Calm - N/A   Scattered Clouds
6:15 AM 39.2°F / 4.0°C 37.4°F / 3.0°C 93% 29.88 in / 1011.7 hPa 10.0 miles / 16.1 kilometers Calm Calm - N/A   Scattered Clouds
6:35 AM 37.4°F / 3.0°C 37.4°F / 3.0°C 100% 29.89 in / 1012.1 hPa 10.0 miles / 16.1 kilometers Calm Calm - N/A   Mostly Cloudy
6:55 AM 37.4°F / 3.0°C 37.4°F / 3.0°C 100% 29.89 in / 1012.1 hPa 10.0 miles / 16.1 kilometers Calm Calm - N/A   Mostly Cloudy
7:15 AM 37.4°F / 3.0°C 37.4°F / 3.0°C 100% 29.90 in / 1012.4 hPa 10.0 miles / 16.1 kilometers Calm Calm - N/A   Scattered Clouds
7:35 AM 39.2°F / 4.0°C 37.4°F / 3.0°C 93% 29.90 in / 1012.4 hPa 10.0 miles / 16.1 kilometers Calm Calm - N/A   Mostly Cloudy
7:55 AM 39.2°F / 4.0°C 37.4°F / 3.0°C 93% 29.91 in / 1012.8 hPa 10.0 miles / 16.1 kilometers Calm Calm - N/A   Mostly Cloudy
8:15 AM 39.2°F / 4.0°C 37.4°F / 3.0°C 93% 29.91 in / 1012.8 hPa 10.0 miles / 16.1 kilometers Calm Calm - N/A   Scattered Clouds
8:35 AM 41.0°F / 5.0°C 37.4°F / 3.0°C 87% 29.92 in / 1013.1 hPa 10.0 miles / 16.1 kilometers SSW 4.6 mph / 7.4 km/h - N/A   Scattered Clouds
8:55 AM 41.0°F / 5.0°C 37.4°F / 3.0°C 87% 29.92 in / 1013.1 hPa 10.0 miles / 16.1 kilometers SSW 6.9 mph / 11.1 km/h - N/A   Scattered Clouds
9:15 AM 41.0°F / 5.0°C 37.4°F / 3.0°C 87% 29.93 in / 1013.4 hPa 10.0 miles / 16.1 kilometers SW 6.9 mph / 11.1 km/h - N/A   Scattered Clouds
9:35 AM 41.0°F / 5.0°C 37.4°F / 3.0°C 87% 29.94 in / 1013.8 hPa 10.0 miles / 16.1 kilometers SSW 4.6 mph / 7.4 km/h - N/A   Mostly Cloudy
9:55 AM 42.8°F / 6.0°C 37.4°F / 3.0°C 81% 29.94 in / 1013.8 hPa 10.0 miles / 16.1 kilometers SSW 5.8 mph / 9.3 km/h - N/A   Mostly Cloudy
10:15 AM 44.6°F / 7.0°C 37.4°F / 3.0°C 76% 29.95 in / 1014.1 hPa 10.0 miles / 16.1 kilometers SSW 5.8 mph / 9.3 km/h - N/A   Mostly Cloudy
10:55 AM 44.6°F / 7.0°C 37.4°F / 3.0°C 76% 29.95 in / 1014.1 hPa 10.0 miles / 16.1 kilometers SW 6.9 mph / 11.1 km/h 16.1 mph / 25.9 km/h N/A   Overcast
11:15 AM 46.4°F / 8.0°C 37.4°F / 3.0°C 71% 29.95 in / 1014.1 hPa 10.0 miles / 16.1 kilometers SSW 9.2 mph / 14.8 km/h - N/A   Mostly Cloudy
11:35 AM 46.4°F / 8.0°C 37.4°F / 3.0°C 71% 29.95 in / 1014.1 hPa 10.0 miles / 16.1 kilometers SW 9.2 mph / 14.8 km/h - N/A   Overcast
11:55 AM 46.4°F / 8.0°C 37.4°F / 3.0°C 71% 29.95 in / 1014.1 hPa 10.0 miles / 16.1 kilometers SSW 11.5 mph / 18.5 km/h 16.1 mph / 25.9 km/h N/A   Mostly Cloudy
12:15 PM 46.4°F / 8.0°C 37.4°F / 3.0°C 71% 29.94 in / 1013.8 hPa 10.0 miles / 16.1 kilometers SW 8.1 mph / 13.0 km/h - N/A   Scattered Clouds
12:35 PM 46.4°F / 8.0°C 37.4°F / 3.0°C 71% 29.94 in / 1013.8 hPa 10.0 miles / 16.1 kilometers WSW 12.7 mph / 20.4 km/h 17.3 mph / 27.8 km/h N/A   Scattered Clouds
12:55 PM 46.4°F / 8.0°C 37.4°F / 3.0°C 71% 29.94 in / 1013.8 hPa 10.0 miles / 16.1 kilometers WSW 11.5 mph / 18.5 km/h 18.4 mph / 29.6 km/h N/A   Mostly Cloudy
1:15 PM 46.4°F / 8.0°C 37.4°F / 3.0°C 71% 29.94 in / 1013.8 hPa 10.0 miles / 16.1 kilometers WSW 13.8 mph / 22.2 km/h - N/A   Mostly Cloudy
1:35 PM 46.4°F / 8.0°C 37.4°F / 3.0°C 71% 29.94 in / 1013.8 hPa 10.0 miles / 16.1 kilometers WSW 11.5 mph / 18.5 km/h 17.3 mph / 27.8 km/h N/A   Mostly Cloudy
1:55 PM 46.4°F / 8.0°C 37.4°F / 3.0°C 71% 29.94 in / 1013.8 hPa 10.0 miles / 16.1 kilometers SW 8.1 mph / 13.0 km/h - N/A   Partly Cloudy
2:15 PM 46.4°F / 8.0°C 37.4°F / 3.0°C 71% 29.94 in / 1013.8 hPa 10.0 miles / 16.1 kilometers SW 9.2 mph / 14.8 km/h - N/A   Scattered Clouds
2:35 PM 46.4°F / 8.0°C 37.4°F / 3.0°C 71% 29.94 in / 1013.8 hPa 10.0 miles / 16.1 kilometers SW 8.1 mph / 13.0 km/h - N/A   Mostly Cloudy
2:55 PM 48.2°F / 9.0°C 35.6°F / 2.0°C 62% 29.94 in / 1013.8 hPa 10.0 miles / 16.1 kilometers SW 9.2 mph / 14.8 km/h 16.1 mph / 25.9 km/h N/A   Mostly Cloudy
3:15 PM 44.6°F / 7.0°C 35.6°F / 2.0°C 71% 29.94 in / 1013.8 hPa 10.0 miles / 16.1 kilometers SW 6.9 mph / 11.1 km/h - N/A   Mostly Cloudy
3:35 PM 44.6°F / 7.0°C 35.6°F / 2.0°C 71% 29.95 in / 1014.1 hPa 10.0 miles / 16.1 kilometers SW 4.6 mph / 7.4 km/h - N/A   Mostly Cloudy
3:55 PM 44.6°F / 7.0°C 35.6°F / 2.0°C 71% 29.95 in / 1014.1 hPa 10.0 miles / 16.1 kilometers West 4.6 mph / 7.4 km/h - N/A   Mostly Cloudy
4:15 PM 41.0°F / 5.0°C 37.4°F / 3.0°C 87% 29.96 in / 1014.4 hPa 10.0 miles / 16.1 kilometers West 6.9 mph / 11.1 km/h - N/A Rain Light Rain
4:35 PM 39.2°F / 4.0°C 39.2°F / 4.0°C 100% 29.96 in / 1014.4 hPa 4.0 miles / 6.4 kilometers SW 4.6 mph / 7.4 km/h - 0.01 in / 0.3 cm   Overcast
4:55 PM 39.2°F / 4.0°C 37.4°F / 3.0°C 93% 29.97 in / 1014.8 hPa 10.0 miles / 16.1 kilometers SW 4.6 mph / 7.4 km/h - 0.01 in / 0.3 cm   Mostly Cloudy
5:15 PM 39.2°F / 4.0°C 37.4°F / 3.0°C 93% 29.97 in / 1014.8 hPa 10.0 miles / 16.1 kilometers Calm Calm - N/A   Scattered Clouds
5:35 PM 37.4°F / 3.0°C 37.4°F / 3.0°C 100% 29.98 in / 1015.1 hPa 10.0 miles / 16.1 kilometers Calm Calm - N/A   Clear
5:55 PM 37.4°F / 3.0°C 37.4°F / 3.0°C 100% 29.98 in / 1015.1 hPa 10.0 miles / 16.1 kilometers Calm Calm - N/A   Clear
6:15 PM 37.4°F / 3.0°C 37.4°F / 3.0°C 100% 29.98 in / 1015.1 hPa 10.0 miles / 16.1 kilometers Calm Calm - N/A   Clear
6:35 PM 37.4°F / 3.0°C 37.4°F / 3.0°C 100% 29.99 in / 1015.5 hPa 10.0 miles / 16.1 kilometers Calm Calm - N/A   Clear
6:55 PM 37.4°F / 3.0°C 37.4°F / 3.0°C 100% 29.99 in / 1015.5 hPa 10.0 miles / 16.1 kilometers Calm Calm - N/A   Partly Cloudy
7:15 PM 37.4°F / 3.0°C 37.4°F / 3.0°C 100% 30.00 in / 1015.8 hPa 10.0 miles / 16.1 kilometers Calm Calm - N/A   Scattered Clouds
7:35 PM 37.4°F / 3.0°C 37.4°F / 3.0°C 100% 30.00 in / 1015.8 hPa 10.0 miles / 16.1 kilometers Calm Calm - N/A   Scattered Clouds
7:55 PM 37.4°F / 3.0°C 37.4°F / 3.0°C 100% 30.00 in / 1015.8 hPa 10.0 miles / 16.1 kilometers Calm Calm - N/A Rain Light Rain
8:15 PM 39.2°F / 4.0°C 37.4°F / 3.0°C 93% 30.00 in / 1015.8 hPa 10.0 miles / 16.1 kilometers Calm Calm - N/A   Mostly Cloudy
8:35 PM 37.4°F / 3.0°C 37.4°F / 3.0°C 100% 30.01 in / 1016.1 hPa 10.0 miles / 16.1 kilometers Calm Calm - N/A Rain Light Rain
8:55 PM 39.2°F / 4.0°C 37.4°F / 3.0°C 93% 30.01 in / 1016.1 hPa 10.0 miles / 16.1 kilometers Calm Calm - N/A   Overcast
9:15 PM 39.2°F / 4.0°C 37.4°F / 3.0°C 93% 30.01 in / 1016.1 hPa 10.0 miles / 16.1 kilometers Calm Calm - N/A   Overcast
9:35 PM 39.2°F / 4.0°C 37.4°F / 3.0°C 93% 30.02 in / 1016.5 hPa 10.0 miles / 16.1 kilometers Calm Calm - N/A   Overcast
9:55 PM 39.2°F / 4.0°C 37.4°F / 3.0°C 93% 30.02 in / 1016.5 hPa 10.0 miles / 16.1 kilometers Calm Calm - N/A   Overcast
10:15 PM 39.2°F / 4.0°C 37.4°F / 3.0°C 93% 30.02 in / 1016.5 hPa 10.0 miles / 16.1 kilometers Calm Calm - N/A   Overcast
10:35 PM 39.2°F / 4.0°C 37.4°F / 3.0°C 93% 30.03 in / 1016.8 hPa 10.0 miles / 16.1 kilometers Calm Calm - N/A   Overcast
10:55 PM 39.2°F / 4.0°C 37.4°F / 3.0°C 93% 30.04 in / 1017.2 hPa 10.0 miles / 16.1 kilometers Calm Calm - N/A   Overcast
11:15 PM 39.2°F / 4.0°C 37.4°F / 3.0°C 93% 30.04 in / 1017.2 hPa 10.0 miles / 16.1 kilometers Calm Calm - N/A   Overcast
11:35 PM 39.2°F / 4.0°C 37.4°F / 3.0°C 93% 30.04 in / 1017.2 hPa 10.0 miles / 16.1 kilometers Calm Calm - N/A   Overcast
11:55 PM 39.2°F / 4.0°C 37.4°F / 3.0°C 93% 30.04 in / 1017.2 hPa 10.0 miles / 16.1 kilometers Calm Calm - N/A   Overcast
Moon Phase
Jan. 26 Jan. 26 Feb. 03 Feb. 10 Feb. 17
Sunrise:07:40 AM (PST) Moon Rise:05:07 PM (PST)1/26
Sunset:05:03 PM (PST) Moon Set:06:59 AM (PST)1/26

Copyright © 2014 The Weather Underground, Inc.